Time,TemperatureF,DewpointF,PressureIn,WindDirection,WindDirectionDegrees,WindSpeedMPH,WindSpeedGustMPH,Humidity,HourlyPrecipIn,Conditions,Clouds,dailyrainin,SoftwareType,DateUTC
2013-02-18 00:00:00,38.3,19.8,30.45,NE,55,0.0,1.0,47,0.00,,,0.00,Wunderground v.1.13,2013-02-18 05:00:00,
2013-02-18 00:30:00,38.0,20.5,30.45,NE,56,0.0,3.0,49,0.00,,,0.00,Wunderground v.1.13,2013-02-18 05:30:00,
2013-02-18 01:00:00,38.0,21.0,30.46,NE,55,0.0,0.0,50,0.00,,,0.00,Wunderground v.1.13,2013-02-18 06:00:00,
2013-02-18 01:30:00,37.8,19.8,30.45,NE,52,2.0,5.0,48,0.00,,,0.00,Wunderground v.1.13,2013-02-18 06:30:00,
2013-02-18 02:00:00,38.8,19.2,30.45,NNE,20,2.0,6.0,45,0.00,,,0.00,Wunderground v.1.13,2013-02-18 07:00:00,
2013-02-18 02:30:00,38.2,18.7,30.45,North,11,2.0,6.0,45,0.00,,,0.00,Wunderground v.1.13,2013-02-18 07:30:00,
2013-02-18 03:00:00,37.6,18.2,30.45,North,11,1.0,1.0,45,0.00,,,0.00,Wunderground v.1.13,2013-02-18 08:00:00,
2013-02-18 03:30:00,37.6,18.7,30.45,North,10,1.0,1.0,46,0.00,,,0.00,Wunderground v.1.13,2013-02-18 08:30:00,
2013-02-18 04:00:00,37.8,17.8,30.45,North,10,1.0,1.0,44,0.00,,,0.00,Wunderground v.1.13,2013-02-18 09:00:00,
2013-02-18 04:30:00,37.5,19.6,30.45,North,10,0.0,0.0,48,0.00,,,0.00,Wunderground v.1.13,2013-02-18 09:30:00,
2013-02-18 05:00:00,37.0,19.1,30.46,North,10,0.0,0.0,48,0.00,,,0.00,Wunderground v.1.13,2013-02-18 10:00:00,
2013-02-18 05:30:00,36.8,19.9,30.47,North,10,1.0,1.0,50,0.00,,,0.00,Wunderground v.1.13,2013-02-18 10:30:00,
2013-02-18 06:00:00,36.5,20.1,30.47,North,10,0.0,3.0,51,0.00,,,0.00,Wunderground v.1.13,2013-02-18 11:00:00,
2013-02-18 06:30:00,35.8,19.9,30.48,North,10,1.0,1.0,52,0.00,,,0.00,Wunderground v.1.13,2013-02-18 11:30:00,
2013-02-18 07:00:00,35.5,19.6,30.49,North,10,0.0,0.0,52,0.00,,,0.00,Wunderground v.1.13,2013-02-18 12:00:00,
2013-02-18 07:30:00,35.8,19.4,30.50,North,10,0.0,0.0,51,0.00,,,0.00,Wunderground v.1.13,2013-02-18 12:30:00,
2013-02-18 08:00:00,36.2,18.9,30.50,NNE,13,0.0,0.0,49,0.00,,,0.00,Wunderground v.1.13,2013-02-18 13:00:00,
2013-02-18 08:30:00,36.6,20.2,30.51,North,11,0.0,0.0,51,0.00,,,0.00,Wunderground v.1.13,2013-02-18 13:30:00,
2013-02-18 09:00:00,40.6,20.9,30.51,North,11,0.0,0.0,45,0.00,,,0.00,Wunderground v.1.13,2013-02-18 14:00:00,
2013-02-18 09:30:00,45.7,21.5,30.51,NNE,14,0.0,0.0,38,0.00,,,0.00,Wunderground v.1.13,2013-02-18 14:30:00,
2013-02-18 10:00:00,47.7,23.3,30.51,North,7,1.0,1.0,38,0.00,,,0.00,Wunderground v.1.13,2013-02-18 15:00:00,
2013-02-18 10:30:00,51.4,24.6,30.50,North,11,1.0,1.0,35,0.00,,,0.00,Wunderground v.1.13,2013-02-18 15:30:00,
2013-02-18 11:00:00,51.9,22.2,30.50,WNW,287,1.0,11.0,31,0.00,,,0.00,Wunderground v.1.13,2013-02-18 16:00:00,
2013-02-18 11:30:00,53.2,23.3,30.50,WNW,284,2.0,2.0,31,0.00,,,0.00,Wunderground v.1.13,2013-02-18 16:30:00,
2013-02-18 12:00:00,54.5,24.4,30.49,SW,230,3.0,3.0,31,0.00,,,0.00,Wunderground v.1.13,2013-02-18 17:00:00,
2013-02-18 12:30:00,55.6,23.8,30.47,SW,227,3.0,3.0,29,0.00,,,0.00,Wunderground v.1.13,2013-02-18 17:30:00,
2013-02-18 13:00:00,55.9,24.1,30.45,West,277,3.0,3.0,29,0.00,,,0.00,Wunderground v.1.13,2013-02-18 18:00:00,
2013-02-18 13:30:00,56.0,24.2,30.42,SW,226,3.0,11.0,29,0.00,,,0.00,Wunderground v.1.13,2013-02-18 18:30:00,
2013-02-18 14:00:00,56.9,24.9,30.41,SW,227,2.0,2.0,29,0.00,,,0.00,Wunderground v.1.13,2013-02-18 19:00:00,
2013-02-18 14:30:00,57.6,25.5,30.39,West,278,3.0,6.0,29,0.00,,,0.00,Wunderground v.1.13,2013-02-18 19:30:00,
2013-02-18 15:00:00,57.6,26.4,30.38,SW,223,2.0,2.0,30,0.00,,,0.00,Wunderground v.1.13,2013-02-18 20:00:00,
2013-02-18 15:30:00,58.3,27.0,30.37,SSW,198,3.0,3.0,30,0.00,,,0.00,Wunderground v.1.13,2013-02-18 20:30:00,
2013-02-18 16:00:00,57.2,26.8,30.36,SW,230,5.0,5.0,31,0.00,,,0.00,Wunderground v.1.13,2013-02-18 21:00:00,
2013-02-18 16:30:00,56.7,26.4,30.36,SW,217,8.0,12.0,31,0.00,,,0.00,Wunderground v.1.13,2013-02-18 21:30:00,
2013-02-18 17:00:00,56.6,26.3,30.35,SW,219,4.0,5.0,31,0.00,,,0.00,Wunderground v.1.13,2013-02-18 22:00:00,
2013-02-18 17:30:00,56.5,27.0,30.34,SW,222,3.0,3.0,32,0.00,,,0.00,Wunderground v.1.13,2013-02-18 22:30:00,
2013-02-18 18:00:00,55.1,26.5,30.34,SSW,193,6.0,6.0,33,0.00,,,0.00,Wunderground v.1.13,2013-02-18 23:00:00,
2013-02-18 18:30:00,53.8,26.8,30.34,SSW,212,4.0,7.0,35,0.00,,,0.00,Wunderground v.1.13,2013-02-18 23:30:00,
2013-02-18 19:00:00,52.9,27.3,30.33,SW,232,6.0,6.0,37,0.00,,,0.00,Wunderground v.1.13,2013-02-19 00:00:00,
2013-02-18 19:30:00,52.2,28.0,30.33,SW,230,4.0,4.0,39,0.00,,,0.00,Wunderground v.1.13,2013-02-19 00:30:00,
2013-02-18 20:00:00,52.0,29.0,30.34,SW,229,4.0,4.0,41,0.00,,,0.00,Wunderground v.1.13,2013-02-19 01:00:00,
2013-02-18 20:30:00,50.7,28.4,30.32,SW,222,5.0,10.0,42,0.00,,,0.00,Wunderground v.1.13,2013-02-19 01:30:00,
2013-02-18 21:00:00,50.2,28.0,30.33,SW,222,4.0,5.0,42,0.00,,,0.00,Wunderground v.1.13,2013-02-19 02:00:00,
2013-02-18 22:00:00,49.8,27.6,30.32,SW,217,4.0,5.0,42,0.00,,,0.00,Wunderground v.1.13,2013-02-19 03:00:00,
2013-02-18 22:30:00,49.4,27.2,30.31,SSW,208,4.0,6.0,42,0.00,,,0.00,Wunderground v.1.13,2013-02-19 03:30:00,
2013-02-18 23:00:00,48.8,26.1,30.30,SW,217,3.0,3.0,41,0.00,,,0.00,Wunderground v.1.13,2013-02-19 04:00:00,
2013-02-18 23:30:00,48.3,25.7,30.28,SSW,213,5.0,10.0,41,0.00,,,0.00,Wunderground v.1.13,2013-02-19 04:30:00,